{"data":{"norad_id":53641,"intl_designator":"2022-104BF","name":"STARLINK-4588","alt_names":[],"object_type":"PAYLOAD","status":"ACTIVE","operator":null,"country":"US","launch_date":"2022-08-28","launch_site_code":"AFETR","launch_vehicle":null,"mission":null,"orbit_class":"UNKNOWN","rcs_meters":null,"size_class":null,"mass_kg":null,"dimensions":null,"purposes":["comms"],"wikipedia_slug":null,"has_3d_model":false,"image_url":null,"decayed_at":null,"tle_current":{"epoch":"2026-09-20T16:46:23.143872Z","epoch_age_seconds":64253,"freshness":"FRESH","line1":"1 53641U 22104BF  26263.69887898  .00002017  00000+0  76720-4 0  9995","line2":"2 53641  53.1592  56.9072 0001312  89.2779 270.8373 15.31706835225822","mean_motion":15.31706835,"eccentricity":0.0001312,"inclination_deg":53.1592,"raan_deg":56.9072,"arg_perigee_deg":89.2779,"mean_anomaly_deg":270.8373,"bstar":7.672e-5,"rev_number":22582,"period_min":94.012768442076,"perigee_km":469.82105053347,"apogee_km":471.61819051069,"semimajor_km":6848.8566205221,"source":"CELESTRAK","updated_at":"2026-09-21T09:00:32.948167Z"}}}